This is the latest recevied weather packets stored in our database for station/object NorthRyde. If no packets are shown the sender has not sent any weather packets the latest 10 day(s).
| Time | Temp. | Humidity | Pressure | Rain* | Wind** | Luminosity | Snow |
|---|---|---|---|---|---|---|---|
| 1778368685 | 15.56° C | 75% | 1029.9 hPa | 0 mm | - | 385 W/m² | - |
| 1778368644 | 15.56° C | 76% | 1029.9 hPa | 0 mm | - | 381 W/m² | - |
| 1778368619 | 15.56° C | 76% | 1030 hPa | 0 mm | - | 380 W/m² | - |
| 1778368599 | 15.56° C | 76% | 1030 hPa | 0 mm | - | 374 W/m² | - |
| 1778368433 | 15.56° C | 76% | 1029.9 hPa | 0 mm | - | 376 W/m² | - |
| 1778368375 | 15.56° C | 76% | 1029.8 hPa | 0 mm | - | 373 W/m² | - |
| 1778368312 | 15.56° C | 77% | 1029.9 hPa | 0 mm | - | 371 W/m² | - |
| 1778368250 | 15.56° C | 77% | 1029.9 hPa | 0 mm | - | 367 W/m² | - |
| 1778368196 | 15.56° C | 77% | 1029.9 hPa | 0 mm | - | 366 W/m² | - |
| 1778368132 | 15.56° C | 78% | 1029.9 hPa | 0 mm | - | 364 W/m² | - |
| 1778368070 | 15° C | 78% | 1029.9 hPa | 0 mm | - | 362 W/m² | - |
| 1778368007 | 15° C | 78% | 1029.8 hPa | 0 mm | - | 360 W/m² | - |
| 1778367945 | 15° C | 78% | 1029.9 hPa | 0 mm | - | 355 W/m² | - |
| 1778367889 | 15° C | 79% | 1029.9 hPa | 0 mm | - | 353 W/m² | - |
| 1778367827 | 15° C | 79% | 1029.8 hPa | 0 mm | - | 352 W/m² | - |
| 1778367760 | 15° C | 79% | 1029.9 hPa | 0 mm | - | 350 W/m² | - |
| 1778367699 | 15° C | 79% | 1029.9 hPa | 0 mm | - | 350 W/m² | - |
| 1778367637 | 14.44° C | 79% | 1029.9 hPa | 0 mm | - | 345 W/m² | - |
| 1778367584 | 14.44° C | 79% | 1029.8 hPa | 0 mm | - | 343 W/m² | - |
| 1778367532 | 14.44° C | 80% | 1029.9 hPa | 0 mm | - | 338 W/m² | - |
| 1778367459 | 14.44° C | 80% | 1029.8 hPa | 0 mm | - | 336 W/m² | - |
| 1778367398 | 14.44° C | 80% | 1029.8 hPa | 0 mm | - | 332 W/m² | - |
| 1778367338 | 14.44° C | 80% | 1030 hPa | 0 mm | - | 330 W/m² | - |
| 1778367284 | 14.44° C | 80% | 1029.9 hPa | 0 mm | - | 329 W/m² | - |
| 1778367218 | 14.44° C | 80% | 1029.9 hPa | 0 mm | - | 325 W/m² | - |
* Rain latest hour (hover to see other rain measurements)
** Current wind speed in m/s (hover to see current wind gust speed)